Home > Weather > Bandar-Abbas > Past weeks

Flag for Iran Past Weather in Bandar-Abbas, Iran — Yesterday and Last 2 Weeks

Now
91 °F

Broken clouds.


Feels Like: 111 °F
Forecast: 87 / 97 °F
Wind: 9 mph from Southeast

Location: Bandarabbass

Current Time: Jul 25, 2016 at 8:57:18 AM

Latest Report: Jul 25, 2016 at 8:30 AM


Visibility: 2 mi

Pressure: 29.59 "Hg

Humidity: 71%

Dew Point: 81 °F

Location of Bandar-AbbasLocation

Past Weather in Bandar-Abbas — Graph

°F

Bandar-Abbas Temperature Yesterday

Maximum temperature yesterday: 97 °F (at 11:00 AM)
Minimum temperature yesterday: 90 °F (at 5:30 AM)
Average temperature yesterday: 93 °F

High & Low Weather Summary for the Past Weeks

 TemperatureHumidityPressure
High106 °F (Jul 11, 7:00 PM)94% (Jul 21, 7:00 AM)29.59 "Hg (Jul 21, 7:00 AM)
Low84 °F (Jul 11, 5:30 AM)29% (Jul 11, 8:00 PM)29.30 "Hg (Jul 10, 5:30 PM)
Average95 °F70%29.44 "Hg
* Reported Jul 10 7:30 AM — Jul 25 7:30 AM, Bandar-Abbas, Weather by CustomWeather, © 2016

Note: Actual official high and low records may vary slightly from our data, if they occured in-between our weather recording intervals... More about our weather records

Advertising

Bandar-Abbas Weather History for the Previous 24 Hours

Scroll right to see more
 ConditionsComfort  
Time TempWeatherWind HumidityBarometerVisibility
7:30 AM
Mon, Jul 25
90 °FPartly cloudy.9 mph75%29.56 "Hg2 mi
7:00 AM90 °FPassing clouds.9 mph75%29.56 "Hg2 mi
6:30 AM90 °FPassing clouds.9 mph75%29.56 "Hg2 mi
5:30 AM90 °FPassing clouds.12 mph75%29.53 "Hg2 mi
4:30 AM90 °FPassing clouds.12 mph75%29.53 "Hg2 mi
3:30 AM90 °FHaze.9 mph79%29.53 "Hg2 mi
2:30 AM90 °FPassing clouds.12 mph79%29.53 "Hg2 mi
2:00 AM90 °FHaze.12 mph79%29.53 "Hg2 mi
1:30 AM90 °FPassing clouds.12 mph79%29.53 "Hg2 mi
1:00 AM90 °FPassing clouds.14 mph79%29.53 "Hg2 mi
12:30 AM90 °FPassing clouds.14 mph79%29.53 "Hg2 mi
12:00 AM90 °FHaze.14 mph79%29.53 "Hg2 mi
11:30 PM
Sun, Jul 24
90 °FHaze.14 mph79%29.53 "Hg2 mi
11:00 PM90 °FHaze.12 mph79%29.53 "Hg2 mi
10:30 PM91 °FHaze.14 mph75%29.53 "Hg3 mi
10:00 PM91 °FHaze.12 mph75%29.50 "Hg3 mi
9:30 PM91 °FHaze.12 mph75%29.50 "Hg3 mi
9:00 PM91 °FScattered clouds.12 mph75%29.50 "Hg3 mi
8:30 PM91 °FHaze.7 mph75%29.47 "Hg3 mi
8:00 PM91 °FHaze.9 mph75%29.47 "Hg3 mi
7:30 PM93 °FHaze.5 mph71%29.47 "Hg3 mi
7:00 PM93 °FHaze.5 mph71%29.45 "Hg3 mi
6:30 PM93 °FHaze.9 mph71%29.45 "Hg3 mi
6:00 PM95 °FHaze.9 mph67%29.45 "Hg3 mi
5:30 PM97 °FHaze.12 mph63%29.45 "Hg2 mi
5:00 PM95 °FHaze.12 mph67%29.47 "Hg2 mi
4:30 PM95 °FSandstorm.16 mph71%29.47 "Hg2 mi
4:00 PM95 °FSandstorm.18 mph71%29.47 "Hg2 mi
3:30 PM95 °FSandstorm.16 mph67%29.47 "Hg2 mi
3:00 PM97 °FSandstorm.16 mph63%29.47 "Hg2 mi
2:30 PM97 °FSandstorm.16 mph63%29.47 "Hg2 mi
2:00 PM97 °FSandstorm.16 mph63%29.50 "Hg2 mi
1:30 PM97 °FSandstorm.16 mph63%29.50 "Hg3 mi
1:00 PM97 °FSandstorm.16 mph63%29.50 "Hg3 mi
12:30 PM97 °FSandstorm.16 mph60%29.53 "Hg3 mi
12:00 PM97 °FSandstorm.16 mph63%29.53 "Hg3 mi
11:30 AM97 °FScattered clouds.12 mph60%29.53 "Hg3 mi
11:00 AM97 °FScattered clouds.12 mph60%29.53 "Hg3 mi
10:30 AM95 °FSandstorm.16 mph63%29.53 "Hg3 mi
10:00 AM95 °FSandstorm.16 mph63%29.53 "Hg2 mi
9:30 AM93 °FSandstorm.16 mph71%29.53 "Hg2 mi
9:00 AM93 °FScattered clouds.14 mph71%29.53 "Hg2 mi
8:30 AM93 °FSandstorm.16 mph71%29.53 "Hg2 mi
8:00 AM91 °FSandstorm.16 mph75%29.50 "Hg2 mi
Weather by CustomWeather, © 2016

See weather overviewHow to use our weather pages